| time (UTC) | temp C | wind direction | speed KPH | gust KPH | rain 1hr cm | rain 24hr cm | rain mn cm | humidity % | barometer mb |
| 20260504014553 | 6 | 0 | 0.0 | 0.0 | 0.00 | 0.03 | 0.03 | 63 | 1010.7 |
| 20260504013057 | 7 | 0 | 0.0 | 3.2 | 0.00 | 0.03 | 0.03 | 61 | 1010.6 |
| 20260504011555 | 8 | 0 | 0.0 | 6.4 | 0.00 | 0.03 | 0.03 | 55 | 1010.4 |
| 20260504010058 | 9 | 288 | 3.2 | 9.7 | 0.00 | 0.03 | 0.03 | 51 | 1010.1 |
| 20260504004558 | 9 | 200 | 1.6 | 11.3 | 0.00 | 0.03 | 0.03 | 50 | 1009.9 |
| 20260504003054 | 10 | 302 | 8.0 | 19.3 | 0.00 | 0.03 | 0.03 | 49 | 1009.8 |
| 20260504001609 | 10 | 311 | 6.4 | 25.7 | 0.00 | 0.03 | 0.03 | 47 | 1009.8 |
| 20260504000058 | 10 | 343 | 11.3 | 27.4 | 0.00 | 0.03 | 0.03 | 46 | 1009.4 |
| 20260503234554 | 10 | 281 | 9.7 | 25.7 | 0.00 | 0.03 | 0.03 | 45 | 1009.2 |
| 20260503233059 | 10 | 297 | 9.7 | 27.4 | 0.00 | 0.03 | 0.03 | 44 | 1009.1 |
| 20260503231555 | 11 | 283 | 4.8 | 12.9 | 0.00 | 0.03 | 0.03 | 42 | 1009.0 |
| 20260503230051 | 11 | 316 | 16.1 | 33.8 | 0.00 | 0.03 | 0.03 | 40 | 1009.2 |
| 20260503224553 | 11 | 287 | 14.5 | 27.4 | 0.00 | 0.03 | 0.03 | 38 | 1009.0 |
| 20260503223052 | 11 | 281 | 8.0 | 25.7 | 0.00 | 0.03 | 0.03 | 35 | 1008.9 |
| 20260503221553 | 11 | 312 | 6.4 | 17.7 | 0.00 | 0.03 | 0.03 | 35 | 1008.7 |
| 20260503220050 | 11 | 326 | 14.5 | 37.0 | 0.00 | 0.03 | 0.03 | 32 | 1008.5 |
| 20260503214555 | 11 | 304 | 8.0 | 24.1 | 0.00 | 0.03 | 0.03 | 31 | 1008.4 |
| 20260503213117 | 11 | 295 | 16.1 | 35.4 | 0.00 | 0.03 | 0.03 | 30 | 1008.6 |
| 20260503211619 | 12 | 207 | 11.3 | 32.2 | 0.00 | 0.03 | 0.03 | 30 | 1008.2 |
| 20260503210052 | 12 | 279 | 11.3 | 22.5 | 0.00 | 0.03 | 0.03 | 28 | 1008.3 |
| 20260503204603 | 11 | 326 | 4.8 | 19.3 | 0.03 | 0.03 | 0.03 | 33 | 1008.3 |
| 20260503203050 | 11 | 288 | 14.5 | 27.4 | 0.03 | 0.03 | 0.03 | 31 | 1008.6 |
| 20260503201553 | 11 | 285 | 11.3 | 30.6 | 0.03 | 0.03 | 0.03 | 33 | 1008.7 |
| 20260503200052 | 11 | 239 | 9.7 | 33.8 | 0.03 | 0.03 | 0.03 | 33 | 1008.9 |
| 20260503194551 | 11 | 265 | 14.5 | 35.4 | 0.00 | 0.00 | 0.00 | 35 | 1008.7 |
| 20260503193050 | 11 | 297 | 12.9 | 32.2 | 0.00 | 0.00 | 0.00 | 33 | 1008.7 |
| 20260503191603 | 10 | 305 | 16.1 | 33.8 | 0.00 | 0.00 | 0.00 | 35 | 1008.9 |
| 20260503190054 | 10 | 330 | 9.7 | 30.6 | 0.00 | 0.00 | 0.00 | 37 | 1009.3 |
| 20260503184630 | 10 | 295 | 11.3 | 29.0 | 0.00 | 0.00 | 0.00 | 38 | 1009.5 |
| 20260503183059 | 9 | 338 | 12.9 | 27.4 | 0.00 | 0.00 | 0.00 | 39 | 1009.6 |
| 20260503181552 | 9 | 328 | 8.0 | 20.9 | 0.00 | 0.00 | 0.00 | 41 | 1009.8 |
| 20260503180056 | 8 | 343 | 14.5 | 33.8 | 0.00 | 0.00 | 0.00 | 41 | 1009.8 |
| 20260503174610 | 8 | 277 | 6.4 | 25.7 | 0.00 | 0.00 | 0.00 | 40 | 1010.1 |
| 20260503173118 | 8 | 311 | 19.3 | 35.4 | 0.00 | 0.00 | 0.00 | 43 | 1010.1 |
| 20260503171554 | 7 | 67 | 11.3 | 30.6 | 0.00 | 0.00 | 0.00 | 41 | 1010.2 |
| 20260503090104 | 2 | 188 | 0.0 | 6.4 | 0.00 | 0.03 | 0.00 | 71 | 1009.9 |
| 20260503081559 | 2 | 287 | 3.2 | 11.3 | 0.00 | 0.03 | 0.00 | 70 | 1010.3 |
| 20260503071610 | 2 | 0 | 0.0 | 6.4 | 0.00 | 0.05 | 0.00 | 70 | 1010.3 |
| 20260503070110 | 3 | 273 | 4.8 | 17.7 | 0.00 | 0.05 | 0.00 | 69 | 1010.3 |
| 20260503060107 | 3 | 311 | 3.2 | 12.9 | 0.00 | 0.18 | 0.00 | 66 | 1010.8 |
| 20260503054558 | 3 | 310 | 9.7 | 19.3 | 0.00 | 0.20 | 0.00 | 65 | 1011.0 |
| 20260503053055 | 3 | 271 | 6.4 | 19.3 | 0.00 | 0.20 | 0.00 | 65 | 1011.2 |
| 20260503051600 | 3 | 339 | 8.0 | 20.9 | 0.00 | 0.20 | 0.00 | 65 | 1011.3 |
| 20260503044556 | 4 | 307 | 4.8 | 24.1 | 0.00 | 0.20 | 0.00 | 66 | 1011.5 |
| 20260503043102 | 3 | 308 | 1.6 | 4.8 | 0.00 | 0.20 | 0.00 | 68 | 1011.5 |
| 20260503041555 | 2 | 302 | 0.0 | 1.6 | 0.00 | 0.20 | 0.00 | 71 | 1011.6 |
| 20260503040058 | 3 | 300 | 0.0 | 8.0 | 0.00 | 0.20 | 0.00 | 71 | 1011.5 |
| 20260503034554 | 2 | 0 | 1.6 | 3.2 | 0.00 | 0.28 | 0.20 | 73 | 1011.6 |
| 20260503033058 | 2 | 0 | 0.0 | 4.8 | 0.00 | 0.28 | 0.20 | 74 | 1011.6 |
| 20260503031552 | 2 | 262 | 0.0 | 1.6 | 0.00 | 0.28 | 0.20 | 75 | 1011.7 |
| 20260503030052 | 2 | 0 | 0.0 | 3.2 | 0.00 | 0.28 | 0.20 | 74 | 1011.8 |
| 20260503024558 | 2 | 0 | 0.0 | 3.2 | 0.00 | 0.28 | 0.20 | 74 | 1012.0 |
| 20260503023052 | 2 | 321 | 0.0 | 3.2 | 0.00 | 0.28 | 0.20 | 71 | 1012.0 |
| 20260503021553 | 2 | 0 | 0.0 | 3.2 | 0.00 | 0.28 | 0.20 | 69 | 1012.1 |
| 20260503020052 | 3 | 0 | 0.0 | 3.2 | 0.00 | 0.28 | 0.20 | 66 | 1012.0 |